User: anonymous   Login
Location: Boca de Tacagua
(10.5333°N, 66.9833°W)
Time: 19:31:50
(UTC+00:00)
Language:

SL-16 R/B - Orbit

View from above orbital plane
View from above orbital plane
View from above satellite
View from above satellite

Ground track
Ground track

The orbit data is extracted from the following two-line orbital elements,

1 31793U 07029B   22143.72238694  .00000211  00000-0  13487-3 0  9994
2 31793  70.9764 204.8167 0002662 276.4876 221.4980 14.14477245769368
Epoch (UTC): 23 May 2022 17:20:14
Eccentricity: 0.0002662
inclination: 70.9764°
perigee height: 842 km
apogee height: 846 km
right ascension of ascending node: 204.8167°
argument of perigee: 276.4876°
revolutions per day: 14.14477245
mean anomaly at epoch: 221.4980°
orbit number at epoch: 76936

The dashed part of the orbit path shows where the satellite is in the earth's shadow,  

DLR